[[{"header":{"parameterUnit":"m.s-1","parameterCategory":1,"la1":30.2991,"la2":30.254,"lo1":-89.0895,"lo2":-89.0444,"dy":0.0017,"dx":0.0017,"nx":28,"ny":28,"refTime":"2023-08-15T21:00:00:Z","depth":0,"parameterNumber":2,"parameterNumberName":"U-component_of_WINDS"},"data":[0,0,0,0,0,0,0,0,0,0,0,0,0,0,0,0,0,0,0,0,0,0,0,0,0,0,0,0,0,0,0,0,0,0,0,0,0,0,0,0,0,0,0,0,0,0,0,0,0,0,0,0,0,0,0,0,0,0,1.0532,1.053,0,1.03,1.0297,1.0295,1.0113,1.0111,1.0109,1.0108,0.9866,0.9862,0.9857,0,0,0,0,0,0,0,0,0,0,0,0,0,1.0816,1.0812,1.0533,1.053,1.0527,1.03,1.0297,1.0294,1.0113,1.0111,1.0109,1.0107,0.9868,0.9862,0.9856,0,0,0,0,0,0,0,0,0,0,0,0,0,1.0649,1.081,1.0533,1.0409,1.0396,1.0301,1.0297,1.0293,1.0114,1.0111,1.0108,1.0106,0.987,0.9863,0.9856,0.9864,0,0,0.9834,0.983,0,0,0,0,0,0,0,0,1.0659,1.0639,1.043,1.0418,1.0402,1.0233,1.0308,1.0149,1.0114,1.0221,1.0108,1.0105,0.999,0.9973,0.9935,0.9852,0.9842,0.9833,0.9829,0.9825,0.9823,0,0,0,0,0,0,0,1.0671,1.0648,1.044,1.0428,1.0411,1.0364,1.0338,1.0277,1.0123,1.0211,1.0197,1.0173,0.9982,0.9942,0.9928,0.9838,0.9833,0.9827,0.9822,0.9819,0.9751,0.9753,0,0,0,0,0,0,1.0702,1.0659,1.0448,1.0433,1.0527,1.0361,1.0331,1.029,1.0123,1.0095,1.0175,1.0165,0.9956,0.9936,0.9919,0.9918,0.9826,0.9819,0.9815,0.9748,0.9751,0.9754,0,0,0,0,0,0,1.0709,1.0685,1.0457,1.0542,1.051,1.0359,1.0314,1.0287,1.0247,1.0096,1.0067,1.0163,0.9953,0.9929,0.9879,0.9907,0.9816,0.9809,0.9745,0.9749,0.9753,0.9916,0,0,0,0,0,0,1.0718,1.0688,1.0691,1.0544,1.0506,1.0423,1.0315,1.0284,1.0235,1.022,1.0077,1.0051,0.9949,0.9891,0.9872,0.9895,0.9803,0.9742,0.9747,0.9751,0.9908,0.9925,0.994,0,0,0,0,0,1.0729,1.0746,1.0692,1.0668,1.0506,1.0425,1.0403,1.0287,1.0238,1.0239,1.0142,1.0055,0.9907,0.9887,0.9864,0.9886,0.974,0.9746,0.9751,0.9901,0.9922,0.994,0,0,0,0,0,0,1.0899,1.0724,1.0663,1.0633,1.0546,1.0395,1.0392,1.0313,1.0236,1.0225,1.0082,1.0052,1.0018,0.9946,0.9927,0.9885,0.9812,0.9813,0.9934,0.9952,0.9968,0.9987,0.9797,0,0,0,0,0,1.0933,1.0883,1.0732,1.072,1.068,1.0544,1.0504,1.0422,1.0325,1.0287,1.0186,1.0094,1.0026,0.9985,0.9914,0.9896,0.9862,0.9899,0.9916,0.993,0.9933,0.9918,0.9933,0.9772,0.9772,0.9772,0,0,1.1003,1.0901,1.0878,1.0752,1.0675,1.0625,1.0514,1.0466,1.0428,1.0279,1.0227,1.015,1.0037,1.0004,0.9984,0.9943,0.997,0.9937,0.9949,0.9944,0.9926,0.9941,0.9955,0.9776,0.9776,0.9775,0,0,1.1106,1.1024,1.1005,1.093,1.0815,1.0724,1.072,1.0581,1.0525,1.047,1.0357,1.0309,1.0195,1.012,1.0067,1.0142,1.0059,1.0122,1.0207,1.0195,1.0208,1.0218,1.0246,1.0257,1.0126,1.0126,1.0126,0,1.1208,1.113,1.1006,1.0965,1.0913,1.0777,1.0757,1.0689,1.0556,1.0523,1.0479,1.0334,1.0249,1.0197,1.0215,1.0176,1.0167,1.0139,1.0216,1.0225,1.0233,1.0258,1.0269,1.0135,1.0134,1.0133,1.0132,0,1.1261,1.1208,1.1207,1.1084,1.1031,1.1001,1.0871,1.0832,1.0755,1.0669,1.0615,1.0508,1.0414,1.0394,1.0317,1.0331,1.0309,1.0243,1.0167,1.0259,1.028,1.0289,1.0147,1.0144,1.0141,1.0139,0,0,1.1465,1.1274,1.1276,1.1219,1.1081,1.1038,1.1001,1.091,1.088,1.0792,1.0758,1.0665,1.0602,1.0543,1.0456,1.0445,1.0512,1.0379,1.0374,1.0409,1.0521,1.0573,1.0586,1.0456,1.0457,1.0458,1.0531,0,1.1548,1.1476,1.1363,1.1328,1.1278,1.1148,1.1115,1.1027,1.0946,1.089,1.0799,1.0736,1.0658,1.0621,1.0604,1.0508,1.0533,1.05,1.0422,1.0421,1.0457,1.0597,1.0652,1.0726,1.0538,1.0539,1.054,0,1.1634,1.1556,1.1517,1.1384,1.1358,1.1332,1.1239,1.1188,1.1085,1.1026,1.096,1.0866,1.0819,1.0749,1.0683,1.0664,1.0625,1.0572,1.0572,1.0562,1.0488,1.0592,1.0747,1.0759,1.0551,1.055,1.055,0,1.179,1.1674,1.1636,1.1591,1.1433,1.1418,1.1352,1.1246,1.1198,1.1117,1.1084,1.0998,1.0952,1.0887,1.0771,1.0731,1.0718,1.0638,1.0668,1.0672,1.0673,1.0675,1.0826,1.0645,1.0645,1.0645,1.0645,0,1.1895,1.1876,1.1704,1.1681,1.1656,1.1525,1.1504,1.1425,1.1332,1.129,1.117,1.1134,1.0983,1.0928,1.0837,1.0797,1.0776,1.0727,1.0704,1.0739,1.0746,1.0713,1.0706,1.0648,1.0647,1.0647,1.0646,0,1.2065,1.1949,1.1899,1.1755,1.1718,1.1706,1.1582,1.1554,1.1465,1.1414,1.1394,1.1254,1.1183,1.1062,1.0955,1.0894,1.0872,1.083,1.0908,1.0894,1.0932,1.0931,1.1068,1.108,1.0892,1.0894,1.0895,0,1.2141,1.2124,1.1978,1.1943,1.1881,1.1825,1.1776,1.1646,1.16,1.1481,1.1468,1.1388,1.1318,1.1211,1.1099,1.1017,1.0974,1.1028,1.0961,1.0998,1.0977,1.0981,1.0979,1.1044,1.1047,1.1049,1.1051,0,1.2289,1.2232,1.2167,1.2083,1.2029,1.1955,1.1876,1.1853,1.1704,1.1659,1.1586,1.1532,1.1424,1.1346,1.1249,1.1178,1.1091,1.1072,1.1075,1.1113,1.1159,1.1136,1.0952,1.107,1.1068,1.1067,1.1066,1.1065,1.2415,1.2394,1.2289,1.2221,1.2147,1.2076,1.2043,1.195,1.1888,1.1791,1.1717,1.165,1.1546,1.1406,1.1341,1.1286,1.1245,1.1249,1.125,1.1254,1.1269,1.1167,1.1267,1.1266,1.1265,1.1265,1.1264,0,1.2558,1.2483,1.2422,1.2316,1.2262,1.2184,1.2092,1.2052,1.1995,1.1906,1.184,1.1756,1.168,1.1563,1.1477,1.1456,1.1414,1.1438,1.144,1.1425,1.1309,1.1316,1.1474,1.1474,1.1474,1.1474,1.1474,1.1474,1.2626,1.2588,1.2519,1.2442,1.2366,1.2301,1.2256,1.2189,1.2117,1.203,1.1967,1.1891,1.179,1.1696,1.1623,1.159,1.1566,1.1604,1.1559,1.1453,1.1433,1.1415,1.1421,1.1599,1.1599,1.168,1.168,1.1681]},{"header":{"parameterUnit":"m.s-1","parameterCategory":1,"la1":30.2991,"la2":30.254,"lo1":-89.0895,"lo2":-89.0444,"dy":0.0017,"dx":0.0017,"nx":28,"ny":28,"refTime":"2023-08-15T21:00:00:Z","depth":0,"parameterNumber":3,"parameterNumberName":"V-component_of_WINDS"},"data":[0,0,0,0,0,0,0,0,0,0,0,0,0,0,0,0,0,0,0,0,0,0,0,0,0,0,0,0,0,0,0,0,0,0,0,0,0,0,0,0,0,0,0,0,0,0,0,0,0,0,0,0,0,0,0,0,0,0,-4.0269,-4.027,0,-4.038,-4.0381,-4.0382,-4.0379,-4.0377,-4.0376,-4.0374,-4.0481,-4.0485,-4.0489,0,0,0,0,0,0,0,0,0,0,0,0,0,-4.005,-4.0054,-4.0269,-4.027,-4.0272,-4.0379,-4.0381,-4.0382,-4.0379,-4.0377,-4.0375,-4.0373,-4.048,-4.0485,-4.049,0,0,0,0,0,0,0,0,0,0,0,0,0,-4.0151,-4.0056,-4.0269,-4.0283,-4.0286,-4.0379,-4.0381,-4.0383,-4.0379,-4.0377,-4.0375,-4.0373,-4.0478,-4.0484,-4.049,-4.0575,0,0,-4.051,-4.0513,0,0,0,0,0,0,0,0,-4.0146,-4.0159,-4.028,-4.0282,-4.0285,-4.0363,-4.0343,-4.0447,-4.038,-4.0343,-4.0374,-4.0372,-4.0443,-4.0452,-4.0478,-4.058,-4.0585,-4.0511,-4.0514,-4.0517,-4.0519,0,0,0,0,0,0,0,-4.0139,-4.0155,-4.0313,-4.0281,-4.0285,-4.0283,-4.0294,-4.0363,-4.0404,-4.0346,-4.0347,-4.036,-4.0444,-4.0472,-4.048,-4.0586,-4.051,-4.0516,-4.052,-4.0522,-4.0765,-4.0767,0,0,0,0,0,0,-4.0129,-4.0149,-4.0309,-4.0316,-4.0209,-4.0288,-4.0302,-4.034,-4.0404,-4.0411,-4.0362,-4.0359,-4.0462,-4.0473,-4.0484,-4.0588,-4.0517,-4.0523,-4.0527,-4.0762,-4.0765,-4.0768,0,0,0,0,0,0,-4.0125,-4.0144,-4.0305,-4.0233,-4.0253,-4.0295,-4.0338,-4.0344,-4.0371,-4.0416,-4.0422,-4.0383,-4.0461,-4.0475,-4.0553,-4.0592,-4.0526,-4.0532,-4.0759,-4.0763,-4.0767,-4.0796,0,0,0,0,0,0,-4.0118,-4.0142,-4.0176,-4.0233,-4.0257,-4.0373,-4.034,-4.0347,-4.0383,-4.0381,-4.0437,-4.0444,-4.046,-4.0544,-4.056,-4.0599,-4.0537,-4.0756,-4.0761,-4.0765,-4.0792,-4.0801,-4.0808,0,0,0,0,0,-4.0111,-4.0178,-4.0177,-4.0197,-4.03,-4.0376,-4.0389,-4.0408,-4.0386,-4.042,-4.0448,-4.0442,-4.0585,-4.0552,-4.057,-4.0612,-4.0753,-4.0759,-4.0765,-4.0788,-4.0799,-4.0808,0,0,0,0,0,0,-4.0121,-4.0186,-4.0186,-4.0274,-4.032,-4.0375,-4.0418,-4.0418,-4.0469,-4.0465,-4.0485,-4.0497,-4.0576,-4.0602,-4.0563,-4.0698,-4.0666,-4.0676,-4.0678,-4.0688,-4.0696,-4.0688,-4.0542,0,0,0,0,0,-4.0134,-4.0192,-4.0244,-4.0317,-4.034,-4.0375,-4.0409,-4.042,-4.0467,-4.0486,-4.052,-4.0565,-4.062,-4.0656,-4.0709,-4.0796,-4.0808,-4.0834,-4.0842,-4.0848,-4.0856,-4.0905,-4.0917,-4.0787,-4.0787,-4.0787,0,0,-4.016,-4.0203,-4.0237,-4.032,-4.0357,-4.0415,-4.0391,-4.0453,-4.0497,-4.0495,-4.0571,-4.0598,-4.0649,-4.0733,-4.0771,-4.0756,-4.0895,-4.0856,-4.0861,-4.0865,-4.0912,-4.0925,-4.0936,-4.0791,-4.0791,-4.079,0,0,-4.0238,-4.0276,-4.0342,-4.038,-4.0437,-4.046,-4.0476,-4.0532,-4.0551,-4.0629,-4.0629,-4.0679,-4.0774,-4.0811,-4.0842,-4.0936,-4.0932,-4.0953,-4.0994,-4.1042,-4.1052,-4.1061,-4.1095,-4.1107,-4.0961,-4.0961,-4.0961,0,-4.0263,-4.0353,-4.0375,-4.0439,-4.0475,-4.0479,-4.0545,-4.058,-4.065,-4.0675,-4.0658,-4.0778,-4.0812,-4.0905,-4.0929,-4.0953,-4.0971,-4.0946,-4.1049,-4.1059,-4.1068,-4.11,-4.1113,-4.0963,-4.0963,-4.0962,-4.0962,0,-4.0381,-4.0443,-4.0489,-4.056,-4.0601,-4.0665,-4.0696,-4.0736,-4.0744,-4.0768,-4.0848,-4.089,-4.0952,-4.0975,-4.0982,-4.1069,-4.1058,-4.1045,-4.1014,-4.1082,-4.1113,-4.1125,-4.0966,-4.0965,-4.0965,-4.0964,0,0,-4.0466,-4.0551,-4.0567,-4.06,-4.0665,-4.0712,-4.0777,-4.084,-4.0874,-4.0922,-4.0976,-4.1058,-4.1047,-4.1082,-4.1094,-4.1135,-4.1208,-4.1117,-4.1119,-4.1133,-4.1307,-4.1316,-4.133,-4.1207,-4.1209,-4.1211,-4.1303,0,-4.0551,-4.0668,-4.069,-4.0791,-4.0849,-4.0855,-4.0911,-4.0956,-4.0981,-4.1033,-4.1059,-4.1117,-4.1098,-4.112,-4.1161,-4.1191,-4.1243,-4.1184,-4.1256,-4.1258,-4.1243,-4.1346,-4.1356,-4.144,-4.1315,-4.1317,-4.1318,0,-4.0665,-4.072,-4.0827,-4.0886,-4.0911,-4.0961,-4.1022,-4.1072,-4.1122,-4.1138,-4.1179,-4.1186,-4.1253,-4.1219,-4.131,-4.127,-4.1301,-4.1319,-4.1323,-4.133,-4.1292,-4.1355,-4.1467,-4.148,-4.1337,-4.1336,-4.1334,0,-4.0716,-4.0817,-4.0895,-4.0923,-4.0993,-4.1028,-4.1059,-4.1108,-4.1145,-4.1198,-4.1222,-4.128,-4.1312,-4.1357,-4.138,-4.1354,-4.147,-4.1438,-4.1483,-4.1483,-4.1506,-4.1504,-4.1624,-4.1527,-4.1527,-4.1527,-4.1526,0,-4.0808,-4.0874,-4.0919,-4.0967,-4.1041,-4.1066,-4.1138,-4.1167,-4.1211,-4.1264,-4.1272,-4.132,-4.1348,-4.1401,-4.1419,-4.1492,-4.1506,-4.1519,-4.1523,-4.1518,-4.1517,-4.1538,-4.1533,-4.153,-4.1529,-4.1529,-4.1528,0,-4.0878,-4.0911,-4.0996,-4.1057,-4.1074,-4.1125,-4.1176,-4.1222,-4.1248,-4.1315,-4.1332,-4.1372,-4.1435,-4.1463,-4.1539,-4.1551,-4.1634,-4.1634,-4.1618,-4.1619,-4.1663,-4.1658,-4.18,-4.182,-4.171,-4.1711,-4.1712,0,-4.0934,-4.0985,-4.1052,-4.1089,-4.1122,-4.1181,-4.122,-4.1247,-4.1287,-4.135,-4.1389,-4.1452,-4.1504,-4.1604,-4.1639,-4.1697,-4.1698,-4.1744,-4.1707,-4.1701,-4.1699,-4.1695,-4.17,-4.175,-4.1751,-4.1752,-4.1753,0,-4.103,-4.1045,-4.1102,-4.1166,-4.1213,-4.1264,-4.1313,-4.1342,-4.1377,-4.1422,-4.1487,-4.1528,-4.1608,-4.167,-4.1732,-4.1761,-4.1763,-4.1765,-4.1778,-4.1773,-4.1762,-4.1769,-4.1636,-4.1761,-4.176,-4.176,-4.1759,-4.1759,-4.1094,-4.1141,-4.1196,-4.126,-4.1301,-4.1347,-4.1394,-4.1428,-4.1484,-4.1552,-4.1565,-4.1634,-4.1685,-4.1768,-4.18,-4.1854,-4.1843,-4.1862,-4.1867,-4.1871,-4.1874,-4.1755,-4.1865,-4.1865,-4.1865,-4.1865,-4.1864,0,-4.1191,-4.1228,-4.1286,-4.1357,-4.1407,-4.1408,-4.1463,-4.1504,-4.1566,-4.1615,-4.1667,-4.1743,-4.1804,-4.1845,-4.1907,-4.1942,-4.1944,-4.1957,-4.1954,-4.1961,-4.188,-4.1863,-4.1955,-4.1955,-4.1955,-4.1955,-4.1955,-4.1955,-4.1247,-4.1326,-4.1347,-4.1446,-4.1482,-4.1552,-4.1584,-4.1627,-4.1666,-4.1751,-4.1803,-4.1831,-4.1876,-4.1941,-4.1997,-4.2008,-4.203,-4.2043,-4.2053,-4.1976,-4.1967,-4.1958,-4.1941,-4.2048,-4.2048,-4.2129,-4.213,-4.2131]}]]